| time (UTC) | temp C | wind direction | speed KPH | gust KPH | rain 1hr cm | rain 24hr cm | rain mn cm | humidity % | barometer mb |
| 20260510074509 | 8 | 0 | 0.0 | 0.0 | 0.00 | 0.00 | 0.00 | 64 | 1018.6 |
| 20260510073504 | 8 | 0 | 0.0 | 0.0 | 0.00 | 0.00 | 0.00 | 63 | 1018.4 |
| 20260510073008 | 8 | 0 | 0.0 | 0.0 | 0.00 | 0.00 | 0.00 | 62 | 1018.3 |
| 20260510072503 | 8 | 0 | 0.0 | 0.0 | 0.00 | 0.00 | 0.00 | 61 | 1018.2 |
| 20260510071508 | 8 | 0 | 0.0 | 0.0 | 0.00 | 0.00 | 0.00 | 59 | 1018.2 |
| 20260510071003 | 9 | 0 | 0.0 | 0.0 | 0.00 | 0.00 | 0.00 | 58 | 1018.2 |
| 20260510070503 | 10 | 0 | 0.0 | 0.0 | 0.00 | 0.00 | 0.00 | 58 | 1018.1 |
| 20260510070008 | 10 | 0 | 0.0 | 0.0 | 0.00 | 0.00 | 0.00 | 56 | 1018.1 |
| 20260510065503 | 10 | 329 | 0.0 | 1.6 | 0.00 | 0.00 | 0.00 | 54 | 1018.0 |
| 20260510065004 | 10 | 335 | 0.0 | 4.8 | 0.00 | 0.00 | 0.00 | 54 | 1018.1 |
| 20260510064508 | 10 | 336 | 0.0 | 4.8 | 0.00 | 0.00 | 0.00 | 53 | 1018.1 |
| 20260510064004 | 10 | 353 | 0.0 | 3.2 | 0.00 | 0.00 | 0.00 | 54 | 1018.1 |
| 20260510062503 | 11 | 307 | 0.0 | 1.6 | 0.00 | 0.00 | 0.00 | 54 | 1017.9 |
| 20260510062004 | 11 | 307 | 0.0 | 1.6 | 0.00 | 0.00 | 0.00 | 53 | 1018.1 |
| 20260510061508 | 11 | 0 | 0.0 | 0.0 | 0.00 | 0.00 | 0.00 | 52 | 1018.0 |
| 20260510060504 | 12 | 332 | 0.0 | 1.6 | 0.00 | 0.00 | 0.00 | 49 | 1018.0 |
| 20260510055503 | 12 | 359 | 0.0 | 6.4 | 0.00 | 0.00 | 0.00 | 48 | 1017.6 |
| 20260510055004 | 12 | 7 | 0.0 | 3.2 | 0.00 | 0.00 | 0.00 | 47 | 1017.3 |
| 20260510054508 | 12 | 345 | 0.0 | 4.8 | 0.00 | 0.00 | 0.00 | 47 | 1017.1 |
| 20260510054003 | 12 | 351 | 1.6 | 6.4 | 0.00 | 0.00 | 0.00 | 47 | 1016.9 |
| 20260510053505 | 12 | 357 | 0.0 | 8.0 | 0.00 | 0.00 | 0.00 | 47 | 1016.8 |
| 20260510053008 | 12 | 355 | 0.0 | 8.0 | 0.00 | 0.00 | 0.00 | 47 | 1016.7 |
| 20260510052504 | 12 | 2 | 1.6 | 8.0 | 0.00 | 0.00 | 0.00 | 47 | 1016.5 |
| 20260510052003 | 13 | 8 | 0.0 | 4.8 | 0.00 | 0.00 | 0.00 | 47 | 1016.5 |
| 20260510051508 | 13 | 350 | 0.0 | 6.4 | 0.00 | 0.00 | 0.00 | 47 | 1016.4 |
| 20260510051004 | 13 | 1 | 0.0 | 6.4 | 0.00 | 0.00 | 0.00 | 47 | 1016.3 |
| 20260510050504 | 13 | 4 | 0.0 | 3.2 | 0.00 | 0.00 | 0.00 | 47 | 1016.4 |
| 20260510050010 | 13 | 352 | 0.0 | 3.2 | 0.00 | 0.00 | 0.00 | 47 | 1016.3 |
| 20260510045503 | 13 | 355 | 0.0 | 3.2 | 0.00 | 0.00 | 0.00 | 47 | 1016.3 |
| 20260510045003 | 13 | 358 | 0.0 | 3.2 | 0.00 | 0.00 | 0.00 | 47 | 1016.2 |
| 20260510044508 | 13 | 24 | 0.0 | 4.8 | 0.00 | 0.00 | 0.00 | 47 | 1016.1 |
| 20260510044004 | 13 | 54 | 0.0 | 4.8 | 0.00 | 0.00 | 0.00 | 47 | 1016.0 |
| 20260510043503 | 14 | 23 | 0.0 | 4.8 | 0.00 | 0.00 | 0.00 | 46 | 1015.9 |
| 20260510043009 | 14 | 7 | 1.6 | 9.7 | 0.00 | 0.00 | 0.00 | 46 | 1015.9 |
| 20260510042504 | 14 | 353 | 1.6 | 9.7 | 0.00 | 0.00 | 0.00 | 46 | 1015.8 |
| 20260510041508 | 14 | 357 | 1.6 | 4.8 | 0.00 | 0.00 | 0.00 | 45 | 1015.6 |
| 20260510041003 | 15 | 356 | 1.6 | 4.8 | 0.00 | 0.00 | 0.00 | 45 | 1015.6 |
| 20260510040504 | 15 | 2 | 0.0 | 4.8 | 0.00 | 0.00 | 0.00 | 45 | 1015.5 |
| 20260510040008 | 15 | 2 | 0.0 | 4.8 | 0.00 | 0.00 | 0.00 | 45 | 1015.3 |
| 20260510035503 | 15 | 353 | 1.6 | 4.8 | 0.00 | 0.00 | 0.00 | 45 | 1015.3 |
| 20260510035003 | 15 | 23 | 1.6 | 6.4 | 0.00 | 0.00 | 0.00 | 44 | 1015.2 |
| 20260510034509 | 15 | 31 | 1.6 | 6.4 | 0.00 | 0.00 | 0.00 | 44 | 1015.1 |
| 20260510034003 | 15 | 24 | 1.6 | 6.4 | 0.00 | 0.00 | 0.00 | 44 | 1015.0 |
| 20260510033503 | 15 | 14 | 1.6 | 9.7 | 0.00 | 0.00 | 0.00 | 44 | 1014.9 |
| 20260510032503 | 16 | 12 | 1.6 | 9.7 | 0.00 | 0.00 | 0.00 | 44 | 1014.7 |
| 20260510032003 | 16 | 7 | 1.6 | 9.7 | 0.00 | 0.00 | 0.00 | 44 | 1014.6 |
| 20260510031508 | 16 | 9 | 1.6 | 9.7 | 0.00 | 0.00 | 0.00 | 43 | 1014.6 |
| 20260510030008 | 16 | 12 | 1.6 | 9.7 | 0.00 | 0.00 | 0.00 | 43 | 1014.3 |
| 20260510025504 | 16 | 11 | 1.6 | 8.0 | 0.00 | 0.00 | 0.00 | 42 | 1014.1 |
| 20260510024508 | 16 | 353 | 0.0 | 4.8 | 0.00 | 0.00 | 0.00 | 43 | 1013.8 |
| 20260510024003 | 16 | 357 | 0.0 | 3.2 | 0.00 | 0.00 | 0.00 | 43 | 1013.6 |
| 20260510023008 | 17 | 355 | 0.0 | 3.2 | 0.00 | 0.00 | 0.00 | 43 | 1013.5 |
| 20260510022003 | 17 | 7 | 0.0 | 4.8 | 0.00 | 0.00 | 0.00 | 42 | 1013.3 |
| 20260510021508 | 17 | 5 | 1.6 | 4.8 | 0.00 | 0.00 | 0.00 | 41 | 1013.0 |
| 20260510021003 | 17 | 8 | 1.6 | 6.4 | 0.00 | 0.00 | 0.00 | 41 | 1012.9 |
| 20260510020503 | 18 | 10 | 1.6 | 11.3 | 0.00 | 0.00 | 0.00 | 41 | 1012.8 |
| 20260510020009 | 18 | 9 | 1.6 | 11.3 | 0.00 | 0.00 | 0.00 | 41 | 1012.8 |
| 20260510015003 | 18 | 355 | 1.6 | 6.4 | 0.00 | 0.00 | 0.00 | 41 | 1012.6 |
| 20260510014509 | 18 | 22 | 1.6 | 8.0 | 0.00 | 0.00 | 0.00 | 41 | 1012.4 |
| 20260510014003 | 18 | 31 | 1.6 | 8.0 | 0.00 | 0.00 | 0.00 | 41 | 1012.4 |
| 20260510013503 | 18 | 23 | 1.6 | 6.4 | 0.00 | 0.00 | 0.00 | 42 | 1012.2 |
| 20260510013009 | 19 | 16 | 1.6 | 9.7 | 0.00 | 0.00 | 0.00 | 42 | 1012.1 |
| 20260510012003 | 20 | 23 | 1.6 | 8.0 | 0.00 | 0.00 | 0.00 | 42 | 1011.8 |
| 20260510011509 | 20 | 19 | 1.6 | 6.4 | 0.00 | 0.00 | 0.00 | 43 | 1011.8 |
| 20260510011004 | 20 | 17 | 1.6 | 6.4 | 0.00 | 0.00 | 0.00 | 42 | 1011.6 |
| 20260510010503 | 20 | 24 | 1.6 | 6.4 | 0.00 | 0.00 | 0.00 | 44 | 1011.5 |
| 20260510010009 | 20 | 20 | 1.6 | 8.0 | 0.00 | 0.00 | 0.00 | 45 | 1011.3 |
| 20260510005503 | 20 | 12 | 1.6 | 8.0 | 0.00 | 0.00 | 0.00 | 44 | 1011.3 |
| 20260510005004 | 21 | 11 | 1.6 | 8.0 | 0.00 | 0.00 | 0.00 | 45 | 1011.2 |
| 20260510004509 | 21 | 19 | 3.2 | 9.7 | 0.00 | 0.00 | 0.00 | 44 | 1011.2 |
| 20260510004003 | 21 | 20 | 4.8 | 11.3 | 0.00 | 0.00 | 0.00 | 44 | 1011.1 |
| 20260510003503 | 21 | 16 | 4.8 | 14.5 | 0.00 | 0.00 | 0.00 | 44 | 1011.1 |
| 20260510003009 | 20 | 15 | 3.2 | 14.5 | 0.00 | 0.00 | 0.00 | 45 | 1011.1 |
| 20260510002003 | 20 | 15 | 3.2 | 8.0 | 0.00 | 0.00 | 0.00 | 46 | 1011.0 |
| 20260510001508 | 20 | 14 | 1.6 | 8.0 | 0.00 | 0.00 | 0.00 | 47 | 1010.9 |
| 20260510001004 | 20 | 24 | 1.6 | 9.7 | 0.00 | 0.00 | 0.00 | 48 | 1010.9 |
| 20260510000503 | 21 | 24 | 3.2 | 9.7 | 0.00 | 0.00 | 0.00 | 46 | 1011.0 |
| 20260510000008 | 21 | 18 | 1.6 | 9.7 | 0.00 | 0.00 | 0.00 | 47 | 1011.0 |
| 20260509235504 | 21 | 3 | 1.6 | 6.4 | 0.00 | 0.00 | 0.00 | 47 | 1011.0 |
| 20260509235003 | 21 | 341 | 1.6 | 4.8 | 0.00 | 0.00 | 0.00 | 49 | 1011.0 |
| 20260509234509 | 21 | 9 | 1.6 | 6.4 | 0.00 | 0.00 | 0.00 | 49 | 1011.0 |
| 20260509234004 | 21 | 2 | 3.2 | 12.9 | 0.00 | 0.00 | 0.00 | 48 | 1011.0 |
| 20260509233504 | 21 | 357 | 3.2 | 12.9 | 0.00 | 0.00 | 0.00 | 47 | 1011.0 |
| 20260509233008 | 21 | 357 | 3.2 | 12.9 | 0.00 | 0.00 | 0.00 | 48 | 1011.0 |
| 20260509232503 | 21 | 8 | 1.6 | 9.7 | 0.00 | 0.00 | 0.00 | 48 | 1011.0 |
| 20260509232005 | 21 | 10 | 3.2 | 9.7 | 0.00 | 0.00 | 0.00 | 48 | 1010.9 |
| 20260509231003 | 21 | 20 | 3.2 | 9.7 | 0.00 | 0.00 | 0.00 | 48 | 1010.9 |
| 20260509230503 | 21 | 11 | 3.2 | 9.7 | 0.00 | 0.00 | 0.00 | 48 | 1010.9 |
| 20260509230009 | 21 | 356 | 3.2 | 9.7 | 0.00 | 0.00 | 0.00 | 48 | 1010.9 |
| 20260509225503 | 21 | 4 | 3.2 | 12.9 | 0.00 | 0.00 | 0.00 | 48 | 1010.9 |
| 20260509223503 | 21 | 20 | 3.2 | 11.3 | 0.00 | 0.00 | 0.00 | 49 | 1010.7 |
| 20260509223008 | 21 | 7 | 4.8 | 17.7 | 0.00 | 0.00 | 0.00 | 48 | 1010.7 |
| 20260509222503 | 21 | 8 | 4.8 | 17.7 | 0.00 | 0.00 | 0.00 | 48 | 1010.7 |
| 20260509222004 | 21 | 3 | 3.2 | 14.5 | 0.00 | 0.00 | 0.00 | 47 | 1010.6 |
| 20260509221003 | 21 | 12 | 4.8 | 17.7 | 0.00 | 0.00 | 0.00 | 47 | 1010.6 |
| 20260509220008 | 21 | 12 | 6.4 | 19.3 | 0.00 | 0.00 | 0.00 | 47 | 1010.5 |
| 20260509215505 | 21 | 357 | 4.8 | 16.1 | 0.00 | 0.00 | 0.00 | 47 | 1010.3 |
| 20260509215003 | 21 | 9 | 6.4 | 16.1 | 0.00 | 0.00 | 0.00 | 47 | 1010.4 |
| 20260509214510 | 21 | 21 | 6.4 | 16.1 | 0.00 | 0.00 | 0.00 | 48 | 1010.2 |
| 20260509214003 | 21 | 23 | 6.4 | 16.1 | 0.00 | 0.00 | 0.00 | 47 | 1010.3 |
| 20260509213503 | 21 | 16 | 6.4 | 17.7 | 0.00 | 0.00 | 0.00 | 46 | 1010.3 |
| 20260509213010 | 21 | 8 | 4.8 | 17.7 | 0.00 | 0.00 | 0.00 | 46 | 1010.1 |
| 20260509212504 | 21 | 358 | 6.4 | 17.7 | 0.00 | 0.00 | 0.00 | 45 | 1010.1 |
| 20260509212003 | 21 | 355 | 6.4 | 19.3 | 0.00 | 0.00 | 0.00 | 45 | 1010.1 |
| 20260509211004 | 22 | 14 | 6.4 | 17.7 | 0.00 | 0.00 | 0.00 | 43 | 1009.9 |
| 20260509210504 | 22 | 16 | 8.0 | 17.7 | 0.00 | 0.00 | 0.00 | 44 | 1009.8 |
| 20260509210008 | 22 | 8 | 6.4 | 16.1 | 0.00 | 0.00 | 0.00 | 43 | 1009.8 |
| 20260509205504 | 22 | 12 | 6.4 | 17.7 | 0.00 | 0.00 | 0.00 | 42 | 1009.8 |
| 20260509205003 | 22 | 12 | 8.0 | 22.5 | 0.00 | 0.00 | 0.00 | 42 | 1009.7 |
| 20260509204508 | 22 | 8 | 8.0 | 29.0 | 0.00 | 0.00 | 0.00 | 41 | 1009.7 |
| 20260509204003 | 22 | 10 | 8.0 | 29.0 | 0.00 | 0.00 | 0.00 | 41 | 1009.6 |
| 20260509203504 | 23 | 26 | 8.0 | 27.4 | 0.00 | 0.00 | 0.00 | 42 | 1009.6 |
| 20260509203008 | 23 | 28 | 8.0 | 27.4 | 0.00 | 0.00 | 0.00 | 42 | 1009.3 |
| 20260509202505 | 23 | 25 | 6.4 | 16.1 | 0.00 | 0.00 | 0.00 | 39 | 1009.4 |
| 20260509202004 | 25 | 22 | 4.8 | 12.9 | 0.00 | 0.00 | 0.00 | 39 | 1009.1 |
| 20260509201508 | 24 | 16 | 4.8 | 16.1 | 0.00 | 0.00 | 0.00 | 37 | 1008.9 |
| 20260509201003 | 24 | 19 | 6.4 | 22.5 | 0.00 | 0.00 | 0.00 | 36 | 1008.9 |
| 20260509200504 | 24 | 11 | 8.0 | 22.5 | 0.00 | 0.00 | 0.00 | 35 | 1008.9 |
| 20260509200008 | 24 | 355 | 6.4 | 17.7 | 0.00 | 0.00 | 0.00 | 35 | 1008.8 |
| 20260509195503 | 24 | 5 | 6.4 | 17.7 | 0.00 | 0.00 | 0.00 | 34 | 1008.8 |
| 20260509195004 | 25 | 22 | 6.4 | 17.7 | 0.00 | 0.00 | 0.00 | 33 | 1008.6 |
| 20260509194508 | 25 | 24 | 4.8 | 14.5 | 0.00 | 0.00 | 0.00 | 33 | 1008.6 |
| 20260509194003 | 25 | 26 | 4.8 | 14.5 | 0.00 | 0.00 | 0.00 | 33 | 1008.4 |
| 20260509193503 | 25 | 32 | 3.2 | 14.5 | 0.00 | 0.00 | 0.00 | 32 | 1008.3 |
| 20260509193009 | 26 | 11 | 1.6 | 11.3 | 0.00 | 0.00 | 0.00 | 31 | 1008.3 |
| 20260509192504 | 25 | 345 | 3.2 | 11.3 | 0.00 | 0.00 | 0.00 | 33 | 1008.2 |
| 20260509192003 | 25 | 350 | 3.2 | 11.3 | 0.00 | 0.00 | 0.00 | 30 | 1008.2 |
| 20260509191508 | 25 | 10 | 4.8 | 16.1 | 0.00 | 0.00 | 0.00 | 31 | 1008.3 |
| 20260509191003 | 25 | 3 | 4.8 | 16.1 | 0.00 | 0.00 | 0.00 | 31 | 1008.2 |
| 20260509190504 | 25 | 352 | 4.8 | 11.3 | 0.00 | 0.00 | 0.00 | 30 | 1008.3 |
| 20260509190008 | 25 | 358 | 4.8 | 14.5 | 0.00 | 0.00 | 0.00 | 30 | 1008.4 |
| 20260509185503 | 25 | 16 | 4.8 | 14.5 | 0.00 | 0.00 | 0.00 | 31 | 1008.2 |
| 20260509185003 | 24 | 34 | 4.8 | 14.5 | 0.00 | 0.00 | 0.00 | 31 | 1008.2 |
| 20260509184509 | 24 | 25 | 4.8 | 19.3 | 0.00 | 0.00 | 0.00 | 30 | 1008.2 |
| 20260509183503 | 25 | 355 | 4.8 | 20.9 | 0.00 | 0.00 | 0.00 | 32 | 1008.2 |
| 20260509183009 | 24 | 5 | 6.4 | 20.9 | 0.00 | 0.00 | 0.00 | 29 | 1008.2 |
| 20260509182503 | 24 | 353 | 4.8 | 16.1 | 0.00 | 0.00 | 0.00 | 30 | 1008.4 |
| 20260509182004 | 24 | 341 | 4.8 | 11.3 | 0.00 | 0.00 | 0.00 | 29 | 1008.3 |
| 20260509181508 | 24 | 359 | 3.2 | 8.0 | 0.00 | 0.00 | 0.00 | 30 | 1008.3 |
| 20260509181004 | 24 | 22 | 3.2 | 8.0 | 0.00 | 0.00 | 0.00 | 32 | 1008.2 |
| 20260509180504 | 23 | 25 | 3.2 | 16.1 | 0.00 | 0.00 | 0.00 | 33 | 1008.2 |
| 20260509180008 | 23 | 25 | 4.8 | 16.1 | 0.00 | 0.00 | 0.00 | 32 | 1008.2 |
| 20260509175503 | 23 | 28 | 3.2 | 12.9 | 0.00 | 0.00 | 0.00 | 35 | 1008.1 |
| 20260509175004 | 23 | 31 | 3.2 | 8.0 | 0.00 | 0.00 | 0.00 | 31 | 1008.1 |
| 20260509174510 | 23 | 17 | 3.2 | 12.9 | 0.00 | 0.00 | 0.00 | 33 | 1008.2 |
| 20260509173504 | 23 | 341 | 3.2 | 9.7 | 0.00 | 0.00 | 0.00 | 33 | 1008.1 |
| 20260509173008 | 23 | 7 | 4.8 | 11.3 | 0.00 | 0.00 | 0.00 | 32 | 1008.0 |
| 20260509172503 | 22 | 22 | 4.8 | 12.9 | 0.00 | 0.00 | 0.00 | 32 | 1008.1 |
| 20260509172004 | 23 | 11 | 4.8 | 12.9 | 0.00 | 0.00 | 0.00 | 33 | 1008.2 |
| 20260509171509 | 23 | 355 | 3.2 | 12.9 | 0.00 | 0.00 | 0.00 | 33 | 1008.3 |
| 20260509171003 | 22 | 17 | 1.6 | 11.3 | 0.00 | 0.00 | 0.00 | 33 | 1008.4 |
| 20260509165503 | 22 | 10 | 4.8 | 12.9 | 0.00 | 0.00 | 0.00 | 34 | 1008.4 |
| 20260509165003 | 22 | 359 | 3.2 | 12.9 | 0.00 | 0.00 | 0.00 | 34 | 1008.3 |
| 20260509164508 | 22 | 359 | 3.2 | 9.7 | 0.00 | 0.00 | 0.00 | 35 | 1008.3 |
| 20260509164003 | 21 | 359 | 3.2 | 14.5 | 0.00 | 0.00 | 0.00 | 35 | 1008.3 |
| 20260509163503 | 21 | 351 | 4.8 | 14.5 | 0.00 | 0.00 | 0.00 | 36 | 1008.4 |
| 20260509163008 | 21 | 352 | 4.8 | 14.5 | 0.00 | 0.00 | 0.00 | 36 | 1008.3 |
| 20260509162004 | 21 | 340 | 3.2 | 12.9 | 0.00 | 0.00 | 0.00 | 36 | 1008.1 |
| 20260509160009 | 20 | 337 | 3.2 | 12.9 | 0.00 | 0.00 | 0.00 | 39 | 1008.3 |
| 20260509155004 | 20 | 353 | 4.8 | 17.7 | 0.00 | 0.00 | 0.00 | 41 | 1008.4 |
| 20260509154508 | 20 | 347 | 4.8 | 17.7 | 0.00 | 0.00 | 0.00 | 42 | 1008.6 |
| 20260509154003 | 20 | 10 | 4.8 | 19.3 | 0.00 | 0.00 | 0.00 | 43 | 1008.6 |
| 20260509153009 | 20 | 359 | 4.8 | 14.5 | 0.00 | 0.00 | 0.00 | 43 | 1008.7 |
| 20260509152503 | 19 | 357 | 4.8 | 16.1 | 0.00 | 0.00 | 0.00 | 43 | 1008.8 |
| 20260509152003 | 19 | 351 | 4.8 | 16.1 | 0.00 | 0.00 | 0.00 | 44 | 1008.8 |
| 20260509151509 | 19 | 352 | 4.8 | 12.9 | 0.00 | 0.00 | 0.00 | 45 | 1008.6 |
| 20260509150503 | 19 | 353 | 4.8 | 9.7 | 0.00 | 0.00 | 0.00 | 46 | 1008.5 |
| 20260509150008 | 19 | 333 | 4.8 | 17.7 | 0.00 | 0.00 | 0.00 | 45 | 1008.3 |
| 20260509145505 | 19 | 315 | 3.2 | 17.7 | 0.00 | 0.00 | 0.00 | 45 | 1008.6 |
| 20260509145005 | 19 | 189 | 1.6 | 6.4 | 0.00 | 0.00 | 0.00 | 46 | 1007.6 |
| 20260509144004 | 18 | 170 | 1.6 | 4.8 | 0.00 | 0.00 | 0.00 | 49 | 1007.2 |
| 20260509143503 | 18 | 216 | 0.0 | 4.8 | 0.00 | 0.00 | 0.00 | 48 | 1007.4 |
| 20260509142503 | 18 | 190 | 3.2 | 6.4 | 0.00 | 0.00 | 0.00 | 48 | 1007.5 |
| 20260509142004 | 17 | 198 | 1.6 | 6.4 | 0.00 | 0.00 | 0.00 | 48 | 1007.6 |
| 20260509141508 | 17 | 204 | 1.6 | 6.4 | 0.00 | 0.00 | 0.00 | 48 | 1007.6 |
| 20260509141004 | 17 | 196 | 1.6 | 4.8 | 0.00 | 0.00 | 0.00 | 49 | 1007.6 |
| 20260509140503 | 17 | 172 | 0.0 | 4.8 | 0.00 | 0.00 | 0.00 | 55 | 1007.6 |
| 20260509135504 | 16 | 158 | 0.0 | 3.2 | 0.00 | 0.00 | 0.00 | 60 | 1007.6 |
| 20260509135003 | 15 | 136 | 0.0 | 3.2 | 0.00 | 0.00 | 0.00 | 61 | 1007.7 |
| 20260509134508 | 14 | 34 | 0.0 | 3.2 | 0.00 | 0.00 | 0.00 | 62 | 1007.6 |
| 20260509134003 | 14 | 0 | 0.0 | 0.0 | 0.00 | 0.00 | 0.00 | 66 | 1007.6 |
| 20260509133504 | 13 | 0 | 0.0 | 0.0 | 0.00 | 0.00 | 0.00 | 66 | 1007.4 |
| 20260509133008 | 13 | 0 | 0.0 | 0.0 | 0.00 | 0.00 | 0.00 | 68 | 1007.5 |
| 20260509132003 | 12 | 0 | 0.0 | 0.0 | 0.00 | 0.00 | 0.00 | 69 | 1007.4 |
| 20260509131508 | 12 | 0 | 0.0 | 0.0 | 0.00 | 0.00 | 0.00 | 70 | 1007.5 |
| 20260509130503 | 11 | 0 | 0.0 | 0.0 | 0.00 | 0.00 | 0.00 | 72 | 1007.5 |
| 20260509130008 | 10 | 0 | 0.0 | 0.0 | 0.00 | 0.00 | 0.00 | 74 | 1007.5 |
| 20260509125004 | 9 | 0 | 0.0 | 0.0 | 0.00 | 0.00 | 0.00 | 79 | 1007.5 |
| 20260509124508 | 8 | 0 | 0.0 | 0.0 | 0.00 | 0.00 | 0.00 | 81 | 1007.4 |
| 20260509124004 | 8 | 0 | 0.0 | 0.0 | 0.00 | 0.00 | 0.00 | 82 | 1007.5 |
| 20260509123503 | 8 | 0 | 0.0 | 0.0 | 0.00 | 0.00 | 0.00 | 83 | 1007.5 |
| 20260509123008 | 7 | 0 | 0.0 | 0.0 | 0.00 | 0.00 | 0.00 | 84 | 1007.5 |
| 20260509122503 | 7 | 0 | 0.0 | 0.0 | 0.00 | 0.00 | 0.00 | 85 | 1007.3 |
| 20260509122003 | 7 | 0 | 0.0 | 0.0 | 0.00 | 0.00 | 0.00 | 84 | 1007.3 |
| 20260509121508 | 6 | 0 | 0.0 | 0.0 | 0.00 | 0.00 | 0.00 | 85 | 1007.4 |
| 20260509121004 | 6 | 0 | 0.0 | 0.0 | 0.00 | 0.00 | 0.00 | 85 | 1007.3 |
| 20260509115503 | 6 | 0 | 0.0 | 0.0 | 0.00 | 0.00 | 0.00 | 84 | 1007.3 |
| 20260509115003 | 6 | 0 | 0.0 | 0.0 | 0.00 | 0.00 | 0.00 | 84 | 1007.2 |
| 20260509114510 | 6 | 0 | 0.0 | 0.0 | 0.00 | 0.00 | 0.00 | 84 | 1007.0 |
| 20260509114004 | 6 | 0 | 0.0 | 0.0 | 0.00 | 0.00 | 0.00 | 84 | 1007.0 |
| 20260509113503 | 6 | 0 | 0.0 | 0.0 | 0.00 | 0.00 | 0.00 | 84 | 1007.0 |
| 20260509113008 | 6 | 0 | 0.0 | 0.0 | 0.00 | 0.00 | 0.00 | 82 | 1006.9 |
| 20260509112503 | 6 | 0 | 0.0 | 0.0 | 0.00 | 0.00 | 0.00 | 82 | 1006.9 |
| 20260509112004 | 6 | 0 | 0.0 | 0.0 | 0.00 | 0.00 | 0.00 | 82 | 1006.9 |
| 20260509111003 | 6 | 0 | 0.0 | 0.0 | 0.00 | 0.00 | 0.00 | 82 | 1006.8 |
| 20260509110008 | 6 | 0 | 0.0 | 0.0 | 0.00 | 0.00 | 0.00 | 81 | 1006.8 |
| 20260509105504 | 6 | 0 | 0.0 | 0.0 | 0.00 | 0.00 | 0.00 | 81 | 1006.8 |
| 20260509105003 | 6 | 0 | 0.0 | 0.0 | 0.00 | 0.00 | 0.00 | 81 | 1006.8 |
| 20260509104508 | 6 | 0 | 0.0 | 0.0 | 0.00 | 0.00 | 0.00 | 82 | 1006.8 |
| 20260509104003 | 6 | 0 | 0.0 | 0.0 | 0.00 | 0.00 | 0.00 | 82 | 1006.9 |
| 20260509103505 | 6 | 0 | 0.0 | 0.0 | 0.00 | 0.00 | 0.00 | 81 | 1007.0 |
| 20260509103009 | 6 | 0 | 0.0 | 0.0 | 0.00 | 0.00 | 0.00 | 81 | 1006.9 |
| 20260509102504 | 6 | 0 | 0.0 | 0.0 | 0.00 | 0.00 | 0.00 | 81 | 1006.8 |
| 20260509102004 | 6 | 0 | 0.0 | 0.0 | 0.00 | 0.00 | 0.00 | 80 | 1006.8 |
| 20260509101508 | 6 | 0 | 0.0 | 0.0 | 0.00 | 0.00 | 0.00 | 80 | 1006.8 |
| 20260509101003 | 6 | 0 | 0.0 | 0.0 | 0.00 | 0.00 | 0.00 | 80 | 1006.8 |
| 20260509100503 | 6 | 0 | 0.0 | 0.0 | 0.00 | 0.00 | 0.00 | 80 | 1006.8 |
| 20260509100009 | 7 | 0 | 0.0 | 0.0 | 0.00 | 0.00 | 0.00 | 79 | 1006.9 |
| 20260509095503 | 7 | 0 | 0.0 | 0.0 | 0.00 | 0.00 | 0.00 | 79 | 1006.8 |
| 20260509095003 | 7 | 0 | 0.0 | 0.0 | 0.00 | 0.00 | 0.00 | 78 | 1006.9 |
| 20260509094508 | 7 | 0 | 0.0 | 0.0 | 0.00 | 0.00 | 0.00 | 78 | 1006.8 |
| 20260509094003 | 7 | 0 | 0.0 | 0.0 | 0.00 | 0.00 | 0.00 | 77 | 1006.9 |
| 20260509093505 | 7 | 0 | 0.0 | 0.0 | 0.00 | 0.00 | 0.00 | 77 | 1006.9 |
| 20260509093008 | 7 | 0 | 0.0 | 0.0 | 0.00 | 0.00 | 0.00 | 77 | 1006.9 |
| 20260509092503 | 7 | 0 | 0.0 | 0.0 | 0.00 | 0.00 | 0.00 | 78 | 1006.9 |
| 20260509092004 | 7 | 0 | 0.0 | 0.0 | 0.00 | 0.00 | 0.00 | 78 | 1006.9 |
| 20260509091508 | 7 | 0 | 0.0 | 0.0 | 0.00 | 0.00 | 0.00 | 77 | 1006.8 |
| 20260509091003 | 7 | 0 | 0.0 | 0.0 | 0.00 | 0.00 | 0.00 | 76 | 1006.9 |
| 20260509090505 | 7 | 0 | 0.0 | 0.0 | 0.00 | 0.00 | 0.00 | 75 | 1006.8 |
| 20260509090008 | 7 | 0 | 0.0 | 0.0 | 0.00 | 0.00 | 0.00 | 75 | 1006.8 |
| 20260509085503 | 7 | 0 | 0.0 | 0.0 | 0.00 | 0.00 | 0.00 | 76 | 1006.7 |
| 20260509085004 | 8 | 0 | 0.0 | 0.0 | 0.00 | 0.00 | 0.00 | 73 | 1006.7 |
| 20260509084508 | 8 | 0 | 0.0 | 0.0 | 0.00 | 0.00 | 0.00 | 73 | 1006.7 |
| 20260509084003 | 8 | 0 | 0.0 | 0.0 | 0.00 | 0.00 | 0.00 | 72 | 1006.7 |
| 20260509083504 | 8 | 0 | 0.0 | 0.0 | 0.00 | 0.00 | 0.00 | 72 | 1006.6 |
| 20260509083009 | 8 | 0 | 0.0 | 0.0 | 0.00 | 0.00 | 0.00 | 72 | 1006.6 |
| 20260509082503 | 8 | 0 | 0.0 | 0.0 | 0.00 | 0.00 | 0.00 | 71 | 1006.7 |
| 20260509081508 | 9 | 0 | 0.0 | 0.0 | 0.00 | 0.00 | 0.00 | 69 | 1006.6 |
| 20260509081004 | 9 | 0 | 0.0 | 0.0 | 0.00 | 0.00 | 0.00 | 68 | 1006.7 |
| 20260509080503 | 10 | 0 | 0.0 | 0.0 | 0.00 | 0.00 | 0.00 | 68 | 1006.6 |
| 20260509080008 | 10 | 0 | 0.0 | 0.0 | 0.00 | 0.00 | 0.00 | 67 | 1006.6 |
| 20260509075504 | 10 | 0 | 0.0 | 0.0 | 0.00 | 0.00 | 0.00 | 67 | 1006.7 |